GW0525 Weather Reports


Display with metric or nautical units.
time (UTC)temp
F
wind
direction
speed
MPH
gust
MPH
rain 1hr
in
rain 24hr
in
rain mn
in
humidity
%
barometer
mb
20260831210103 75 312 21.0 31.0 0.00 0.00 0.00 34 1013.9
20260831204604 76 267 17.0 29.0 0.00 0.00 0.00 33 1013.8
20260831203135 75 296 19.0 33.0 0.00 0.00 0.00 34 1013.8
20260831201611 75 292 22.0 35.0 0.00 0.00 0.00 34 1013.7
20260831200106 74 276 21.0 38.0 0.00 0.00 0.00 34 1013.6
20260831194614 74 319 19.0 32.0 0.00 0.00 0.00 34 1013.8
20260831193106 74 265 16.0 32.0 0.00 0.00 0.00 37 1013.6
20260831191613 73 287 20.0 34.0 0.00 0.00 0.00 37 1013.6
20260831190139 72 276 26.0 35.0 0.00 0.00 0.00 40 1013.6
20260831184609 72 329 22.0 32.0 0.00 0.00 0.00 40 1013.6
20260831183109 72 328 24.0 32.0 0.00 0.00 0.00 41 1013.7
20260831181606 72 311 18.0 35.0 0.00 0.00 0.00 41 1013.6
20260831180106 72 286 23.0 33.0 0.00 0.00 0.00 41 1013.6
20260831174604 71 287 22.0 34.0 0.00 0.00 0.00 42 1013.6
20260831173115 70 310 23.0 33.0 0.00 0.00 0.00 42 1013.6
20260831171607 70 311 20.0 34.0 0.00 0.00 0.00 42 1013.6
20260831170113 69 315 21.0 36.0 0.00 0.00 0.00 43 1013.4
20260831164605 68 256 22.0 33.0 0.00 0.00 0.00 42 1013.3
20260831163106 67 299 25.0 36.0 0.00 0.00 0.00 42 1013.3
20260831161612 67 287 20.0 38.0 0.00 0.00 0.00 42 1013.0
20260831160135 67 262 25.0 36.0 0.00 0.00 0.00 42 1013.1
20260831154637 66 269 18.0 34.0 0.00 0.00 0.00 42 1013.0
20260831153133 65 293 23.0 35.0 0.00 0.00 0.00 42 1012.8
20260831151606 64 259 21.0 36.0 0.00 0.00 0.00 43 1012.6
20260831150107 63 275 21.0 33.0 0.00 0.00 0.00 43 1012.7
20260831144608 62 271 21.0 36.0 0.00 0.00 0.00 43 1012.6
20260831143111 62 257 18.0 35.0 0.00 0.00 0.00 43 1012.5
20260831141605 62 266 24.0 32.0 0.00 0.00 0.00 43 1012.3
20260831140108 61 265 24.0 37.0 0.00 0.00 0.00 43 1012.1
20260831134611 60 255 24.0 32.0 0.00 0.00 0.00 45 1012.1
20260831133110 59 262 21.0 30.0 0.00 0.00 0.00 47 1012.3
20260831131610 58 266 17.0 24.0 0.00 0.00 0.00 50 1012.3
20260831130139 57 252 17.0 22.0 0.00 0.00 0.00 52 1012.2
20260831124608 56 257 16.0 26.0 0.00 0.00 0.00 53 1012.1
20260831123109 56 238 16.0 22.0 0.00 0.00 0.00 55 1011.8
20260831121608 55 257 14.0 20.0 0.00 0.00 0.00 56 1011.9
20260831120146 56 240 14.0 22.0 0.00 0.00 0.00 55 1011.7
20260831114607 56 251 17.0 27.0 0.00 0.00 0.00 53 1011.8
20260831113105 57 245 20.0 30.0 0.00 0.00 0.00 52 1011.7
20260831111606 57 245 18.0 26.0 0.00 0.00 0.00 53 1011.5
20260831110112 56 262 15.0 20.0 0.00 0.00 0.00 56 1011.5
20260831104608 55 250 16.0 21.0 0.00 0.00 0.00 59 1011.5
20260831103104 54 261 14.0 18.0 0.00 0.00 0.00 63 1011.5
20260831101623 56 248 15.0 21.0 0.00 0.00 0.00 59 1011.4
20260831100108 57 268 15.0 21.0 0.00 0.00 0.00 56 1011.5
20260831094610 57 269 16.0 22.0 0.00 0.00 0.00 57 1011.7
20260831093115 56 259 15.0 20.0 0.00 0.00 0.00 63 1011.7
20260831091606 49 228 6.0 14.0 0.00 0.00 0.00 82 1011.8
20260831090124 51 257 9.0 12.0 0.00 0.00 0.00 81 1011.5
20260831084605 49 248 9.0 11.0 0.00 0.00 0.00 81 1011.4
20260831083108 49 242 7.0 9.0 0.00 0.00 0.00 81 1011.2
20260831081608 50 233 5.0 10.0 0.00 0.00 0.00 80 1011.1
20260831080111 50 230 1.0 10.0 0.00 0.00 0.00 79 1011.2
20260831074608 51 260 8.0 11.0 0.00 0.00 0.00 78 1011.1
20260831073125 51 255 9.0 11.0 0.00 0.00 0.00 78 1010.9
20260831071609 50 244 9.0 11.0 0.00 0.00 0.00 79 1010.9
20260831070138 51 257 8.0 9.0 0.00 0.00 0.00 78 1011.1
20260831064604 51 241 5.0 9.0 0.00 0.00 0.00 77 1011.2
20260831063107 50 240 1.0 9.0 0.00 0.00 0.00 80 1011.3
20260831061610 51 168 2.0 5.0 0.00 0.00 0.00 76 1011.4
20260831060112 51 0 0.0 8.0 0.00 0.00 0.00 75 1011.4
20260831054606 56 264 8.0 10.0 0.00 0.00 0.00 69 1011.5
20260831053109 56 292 8.0 10.0 0.00 0.00 0.00 69 1011.4
20260831051622 55 241 8.0 11.0 0.00 0.00 0.00 70 1011.5
20260831050109 55 263 8.0 11.0 0.00 0.00 0.00 71 1011.5
20260831044605 55 267 8.0 10.0 0.00 0.00 0.00 72 1011.5
20260831043108 55 266 7.0 9.0 0.00 0.00 0.00 72 1011.6
20260831041616 56 279 7.0 9.0 0.00 0.00 0.00 72 1011.8
20260831040107 56 271 6.0 9.0 0.00 0.00 0.00 71 1011.8
20260831034606 57 286 7.0 9.0 0.00 0.00 0.00 71 1011.7
20260831033108 56 268 7.0 9.0 0.00 0.00 0.00 72 1011.9
20260831031606 56 279 7.0 9.0 0.00 0.00 0.00 72 1011.9
20260831030106 56 280 6.0 8.0 0.00 0.00 0.00 72 1011.8
20260831024619 58 280 4.0 7.0 0.00 0.00 0.00 69 1011.8
20260831023105 58 273 5.0 8.0 0.00 0.00 0.00 69 1011.7
20260831021605 58 287 6.0 8.0 0.00 0.00 0.00 68 1011.3
20260831020109 60 291 6.0 10.0 0.00 0.00 0.00 66 1011.1
20260831014610 61 297 6.0 10.0 0.00 0.00 0.00 63 1011.0
20260831013106 62 280 7.0 12.0 0.00 0.00 0.00 62 1011.0
20260831011604 63 306 7.0 12.0 0.00 0.00 0.00 62 1010.8
20260831010134 64 286 10.0 15.0 0.00 0.00 0.00 60 1010.9
20260831004615 65 309 13.0 18.0 0.00 0.00 0.00 57 1011.1
20260831003111 65 277 12.0 17.0 0.00 0.00 0.00 55 1010.9
20260831001611 66 261 12.0 19.0 0.00 0.00 0.00 52 1010.6
20260831000109 66 244 10.0 15.0 0.00 0.00 0.00 56 1010.6
20260830234605 64 246 10.0 14.0 0.00 0.00 0.00 59 1010.6
20260830233107 63 227 4.0 11.0 0.00 0.00 0.00 68 1010.8
20260830231609 61 249 4.0 8.0 0.00 0.00 0.00 70 1011.2
20260830230114 60 240 0.0 5.0 0.00 0.00 0.00 73 1011.3
20260830224610 60 0 0.0 6.0 0.00 0.00 0.00 75 1010.5
20260830223105 60 240 1.0 6.0 0.00 0.00 0.00 75 1011.1
20260830221605 59 247 8.0 17.0 0.00 0.00 0.00 76 1011.5
20260830220129 61 298 16.0 31.0 0.00 0.00 0.00 72 1011.1
20260830214605 62 288 18.0 33.0 0.00 0.00 0.00 70 1012.2
20260830213103 63 254 19.0 30.0 0.00 0.00 0.00 65 1011.9
20260830211605 64 313 20.0 33.0 0.00 0.00 0.00 65 1011.6